Location: Puketoi
(40.5833°S, 176.0167°E)
Time: 00:29:02
(UTC+00:00)

COSMOS 2455 - Pass Details

Date: 06 October 2023
Orbit: 902 x 907 km, 67.1° (Epoch: 03 December)

Event Time Altitude Azimuth Distance (km) Brightness Sun altitude
Rises 07:49:47 0° 9° (N) 3,521 5.6 -16.2°
Enters shadow 07:49:51 - 9° (N) 3,501 5.6 -16.2°
Exits shadow 08:00:26 17° 113° (ESE) 2,156 4.4 -18.1°
Drops below altitude 10° 08:02:10 10° 126° (SE) 2,610 5.0 -18.4°
Sets 08:05:07 0° 138° (SE) 3,559 5.8 -18.9°
